Terminal Aerodrome Forecast
Issued by NWS Columbia, SC

Home | Current Version | Previous Version | Text Only | Print | Product List | Glossary On
Versions: 1 2 3 4 5 6 7 8 9 10 11 12 13 14 15 16 17 18 19 20 21 22 23 24 25 26 27 28 29 30 31 32 33 34 35 36 37 38 39 40 41 42 43 44 45 46 47 48
000
FTAK31 PAJN 220500
TAFAGS
TAF
PAGS 220537Z 2206/2306 13005KT P6SM VCSH OVC030
     FM220900 VRB03KT P6SM VCSH SCT005 BKN020 OVC035
     FM221200 VRB03KT 5SM -SHRA BR SCT005 BKN025 OVC030
     FM230000 VRB05KT P6SM VCSH BKN030
      AMD LTD TO CLD VIS AND WIND=

USA.gov is the U.S. government's official web portal to all federal, state and local government web resources and services.